#timestamp,LO_Frequency,Hit,StdDev 
1684526415.8,286047000.9,N
1684526435.7,286047000.6,N
1684526455.5,286047000.0,N
1684526475.3,286047002.3,Y
1684526495.2,286047002.6,P
1684526515.0,286047002.1,N
1684526515.9,286047002.1,N
1684526535.8,286047000.0,N
1684526555.6,286046999.9,N
1684526575.4,286047002.7,N
1684526595.3,286047001.1,N
1684526615.1,286047000.0,N
1684526635.8,286047000.4,N
1684526655.7,286047001.1,N
1684526675.5,286047000.7,N
1684526695.4,286047000.2,N
1684526715.2,286046999.9,N
1684526735.0,286047000.8,N
1684526735.9,286047000.8,N
1684526755.8,286047000.8,N
1684526775.6,286046998.6,N
1684526795.4,286047001.0,N
1684526815.3,286047001.0,N
1684526835.1,286047000.1,N
1684526855.9,286047002.7,N
1684526875.7,286047000.7,N
1684526895.5,286047002.4,N
1684526915.4,286047002.8,N
1684526935.2,286046999.9,N
1684526955.0,286047002.2,N
1684526956.0,286047002.2,N
1684526975.8,286047001.9,N
1684526995.6,286047002.8,N
1684527015.5,286047002.2,N
1684527035.3,286047000.2,N
1684527055.1,286047000.0,N
1684527075.9,286046999.7,N
1684527095.7,286047002.1,N
1684527115.6,286047001.6,N
1684527135.4,286047004.0,Y
1684527155.2,286047002.6,P
1684527175.1,286047002.8,P
1684527176.0,286047002.8,P
1684527195.8,286047000.6,N
1684527215.7,286047002.2,N
1684527235.5,286047002.4,N
1684527255.3,286047002.6,Y
1684527275.2,286046998.2,P
1684527295.0,286046999.3,N
1684527295.9,286046999.3,N
1684527315.7,286046998.9,N
1684527335.6,286046998.8,N
1684527355.4,286046997.4,N
1684527375.3,286046996.6,N
1684527395.1,286046996.7,N
1684527396.0,286046996.7,N
1684527415.8,286046999.3,N
1684527435.7,286047001.2,N
1684527455.5,286046998.4,N
1684527475.4,286046998.8,N
1684527495.2,286046996.9,N
1684527515.0,286046999.4,N
1684527515.9,286046999.4,N
1684527535.8,286046999.5,N
1684527555.6,286046996.5,N
1684527575.5,286046999.2,N
1684527595.3,286046999.3,N
1684527615.1,286046998.4,N
1684527635.9,286046998.7,N
1684527655.7,286046998.3,N
1684527675.5,286046998.9,N
1684527695.4,286046998.7,N
1684527715.2,286046998.4,N
1684527735.1,286046999.6,N
1684527736.0,286046999.6,N
1684527755.8,286046996.8,N
1684527775.6,286046999.1,N
1684527795.5,286046999.1,N
1684527815.3,286046998.9,N
1684527835.2,286046998.2,N
1684527855.9,286046999.1,N
1684527875.7,286046998.9,N
1684527895.6,286046999.0,N
1684527915.4,286046998.2,N
1684527935.3,286046997.0,N
1684527955.1,286046997.1,N
1684527956.0,286046997.1,N
1684527975.8,286046997.1,N
1684527995.7,286046997.0,Y
1684528015.5,286046999.8,P
1684528035.3,286047002.3,P
1684528055.2,286047004.2,N
1684528075.0,286047004.1,N
1684528075.9,286047004.1,N
1684528095.8,286047001.5,N
1684528115.6,286047002.0,N
1684528135.4,286047001.9,N
1684528155.3,286047002.3,N
1684528175.1,286047001.2,N
1684528195.9,286047000.1,N
1684528215.7,286046999.7,N
1684528235.5,286047001.6,N
1684528285.4,286047004.1,E
1684528295.3,286047002.1,N
1684528315.1,286046998.9,P
1684528335.9,286046998.8,N
1684528355.7,286046998.7,N
1684528375.6,286046999.4,N
1684528395.4,286046999.0,N
1684528415.2,286046999.5,N
1684528435.1,286046996.6,Y
1684528436.0,286046996.6,P
1684528455.8,286046997.0,N
1684528475.7,286046997.8,N
1684528495.5,286046995.6,Y
1684528515.3,286046997.2,P
1684528535.2,286046997.2,P
1684528555.0,286046999.2,P
1684528555.9,286046999.2,N
1684528575.7,286047000.6,N
1684528595.6,286047000.7,N
1684528615.4,286047000.0,N
1684528635.3,286047000.0,N
1684528655.1,286046999.9,N
1684528656.0,286046999.9,N
1684528675.8,286047000.9,N
1684528695.7,286047000.9,N
1684528715.5,286046998.6,N
1684528735.4,286047001.1,N
1684528755.2,286047000.0,N
1684528775.0,286047000.2,N
1684528775.9,286047000.2,N
1684528795.8,286046999.8,N
1684528815.6,286047002.1,N
1684528835.5,286047002.2,N
1684528855.3,286047002.0,N
1684528875.1,286047001.7,N
1684528895.9,286047001.6,N
1684528915.7,286047002.0,N
1684528935.5,286047000.9,N
1684528955.4,286047000.8,N
1684528975.2,286046999.7,N
1684528995.1,286047000.4,N
1684528996.0,286047000.4,N
1684529015.8,286047001.2,N
1684529035.6,286047001.0,N
1684529055.5,286047002.7,N
1684529075.3,286047000.1,N
1684529095.1,286047002.6,N
1684529115.9,286047002.8,N
1684529135.7,286046999.7,N
1684529155.6,286046999.9,N
1684529175.4,286046999.8,N
1684529195.2,286047001.5,N
1684529215.1,286047000.7,N
1684529216.0,286047000.7,N
1684529235.8,286047001.1,N
1684529255.6,286046998.7,N
1684529275.5,286046998.8,N
1684529295.3,286047001.1,N
1684529315.2,286046998.2,N
1684529335.9,286047002.6,N
1684529355.7,286047002.4,N
1684529375.6,286047002.5,N
1684529395.4,286047002.6,N
1684529415.2,286047002.7,N
1684529435.1,286046999.8,N
1684529436.0,286046999.8,N
1684529455.8,286046999.7,N
1684529475.7,286047002.7,N
1684529495.5,286047002.3,N
1684529515.3,286047002.4,N
1684529535.2,286047000.2,N
1684529555.0,286047001.2,N
1684529555.9,286047001.2,N
1684529575.7,286047001.1,N
1684529595.6,286047001.0,N
1684529615.4,286046999.8,N
1684529635.3,286047002.2,N
1684529655.1,286047002.4,N
1684529675.9,286047001.6,N
1684529695.7,286047001.9,N
1684529715.5,286047001.4,N
1684529735.4,286047002.0,N
1684529755.2,286047002.2,N
1684529775.0,286047002.2,N
1684529775.9,286047002.2,N
1684529795.8,286047002.0,N
1684529815.6,286047004.1,Y
1684529835.5,286047002.3,P
1684529855.3,286047002.7,P
1684529875.1,286046998.5,N
1684529895.9,286046998.5,N
1684529915.7,286046999.7,N
1684529935.6,286047000.3,N
1684529955.4,286047000.5,N
1684529975.2,286047000.0,N
1684529995.1,286047001.3,N
1684529996.0,286047001.3,N
